Mohamed Al Hashmi

Главный скаут - Al Shaab
20 Янв 2028
Четверг
Продолжить

Характер

Адаптивность (12) Амбиции (15) Скандальность (13) Верность (3) Стрессоустойчивость (11) Профессионализм (14) Благородство (6) Темперамент (4)

Профиль

Стиль управления Демократичный
Лицензия Национальная A
Решительность 4
Управление людьми 10
Мотивация 8
Дисциплина 8
Удовлетворённость
100%
Усталость
0%
Должность Главный скаут
Зарплата 23.6K в нед.
Контракт 14.03.2029

Производительность

Поведение Хорошее
Эффективность тренировок
26%
Развитие игроков
35%
Профилактика травм
45%
Тактическая реализация
25%

Недавние события

Проходит курсы повышения квалификации только что
Участвовал в селекционном совещании только что
Участвовал в селекционном совещании только что
Участвовал в селекционном совещании только что
Проходит курсы повышения квалификации только что
Участвовал в селекционном совещании 7 дн. назад
Проходит курсы повышения квалификации 7 дн. назад
Проходит курсы повышения квалификации 7 дн. назад

Текущее наблюдение

115
Игрок Клуб Статус Способность Уверенность Наблюдений Последнее наблюдение Последний голос
Lucas Carrizo Plaza Colonia Активный 128 / 132 40% 1 19.01.2028 -
Fernando Mimbacas Juventud Активный 127 / 101 40% 1 19.01.2028 -
Ignacio Yepez Cerrito Активный 110 / 104 40% 1 31.12.2027 -
Timothy Zechariah Rivers United Активный 111 / 83 40% 1 31.12.2027 -
Emanuele Schimmenti Potenza Активный 102 / 109 40% 1 07.06.2027 -
Ronan Hale Gillingham Активный 111 / 119 40% 3 31.05.2027 -
Kyle Wootton Stockport County Активный 114 / 137 40% 1 31.05.2027 -
Dramane Kamagaté USM Alger Активный 88 / 126 40% 3 25.05.2027 -
Ekain Orobengoa Real Sociedad Активный 84 / 101 40% 2 25.05.2027 -
Lewis McCann Fleetwood Town Активный 104 / 97 40% 2 24.05.2027 -
Kelly Saravanan Salford City Активный 115 / 126 40% 1 24.05.2027 -
Christian Saydee Wigan Athletic Активный 127 / 108 40% 1 23.05.2027 -
Mohammad Alsalkhadi Damac Активный 112 / 98 40% 5 22.05.2027 -
Calum Kavanagh Oldham Athletic Активный 103 / 80 40% 2 22.05.2027 -
Sam Nombe Milton Keynes Dons Активный 109 / 126 40% 4 21.05.2027 -
Will Evans Mansfield Town Активный 97 / 106 40% 2 21.05.2027 -
Bojan Radulović Huddersfield Town Активный 107 / 97 40% 2 19.05.2027 -
Bismark Asante Ashanti Gold Активный 98 / 72 40% 3 19.05.2027 -
Wilfried Kanga Al-Fateh Активный 120 / 119 40% 4 17.05.2027 -
Fortune Bassey Djoliba Активный 97 / 121 40% 2 17.05.2027 -
Bernat Guiu Virtus Entella Активный 117 / 128 40% 1 15.05.2027 -
Shayne Lavery Cambridge United Активный 109 / 109 40% 3 14.05.2027 -
Aaron Collins Milton Keynes Dons Активный 118 / 111 40% 2 05.05.2027 -
Ben Ahmed Kohili Paradou Активный 90 / 127 40% 1 05.05.2027 -
Marcus Browne AFC Wimbledon Активный 92 / 101 40% 2 30.04.2027 -
Giacomo Zecca Torres Активный 119 / 103 40% 1 29.04.2027 -
Lamine Guèye Barrow AFC Активный 113 / 130 40% 1 28.04.2027 -
Bradley Fink Wycombe Wanderers Активный 126 / 117 40% 1 28.04.2027 -
Job Ochieng Real Sociedad Активный 123 / 113 40% 2 27.04.2027 -
Mees Rijks Bristol Rovers Активный 125 / 116 40% 1 27.04.2027 -
Harry Leonard Peterborough United Активный 115 / 121 40% 2 26.04.2027 -
Elijah Adebayo Luton Town Активный 123 / 123 40% 1 26.04.2027 -
Sam Bell Bristol City Активный 104 / 121 40% 2 25.04.2027 -
Lee Bonis Chesterfield Активный 87 / 115 40% 1 23.04.2027 -
Malik Mothersille Stockport County Активный 101 / 123 40% 1 23.04.2027 -
Aaron Drinan Swindon Town Активный 97 / 84 40% 4 22.04.2027 -
Dom Ballard Leyton Orient Активный 119 / 136 40% 3 21.04.2027 -
Josh Koroma Leyton Orient Активный 123 / 112 40% 1 21.04.2027 -
Stephen Humphrys Bradford City Активный 117 / 99 40% 4 19.04.2027 -
Meshari Al-Nemer Al-Diriyah Активный 98 / 93 40% 1 19.04.2027 -
Dany Mota Monza Активный 118 / 112 40% 1 16.04.2027 -
Jayden Wareham Barnet Активный 98 / 94 40% 2 11.04.2027 -
Matteo Rover Reggiana Активный 106 / 106 40% 1 11.04.2027 -
Lorent Tolaj Plymouth Argyle Активный 128 / 136 40% 2 10.04.2027 -
Törles Knöll Al-Ta'ee Активный 101 / 98 40% 7 06.04.2027 -
Aimen Mahious JS Kabylie Активный 100 / 119 40% 3 06.04.2027 -
Mohamed Hussain Al Ahli Активный 100 / 111 40% 3 05.04.2027 -
Leandro Antunes Al-Riyadh Активный 114 / 113 40% 2 03.04.2027 -
Oto John ES Mostaganem Активный 88 / 95 40% 1 02.04.2027 -
Marco Tumminello Benevento Активный 108 / 116 40% 2 30.03.2027 -
Kwame Opoku Asante Kotoko Активный 117 / 98 40% 2 29.03.2027 -
Promise Omochere Bristol Rovers Активный 92 / 98 40% 1 26.03.2027 -
Davis Keillor-Dunn Wrexham Активный 111 / 132 40% 1 25.03.2027 -
Haitham Asiri Al-Qadisiyah Активный 110 / 101 40% 6 23.03.2027 -
Mohanad Ali Dibba Активный 120 / 101 40% 1 20.03.2027 -
Leandro Godoy CSKA Sofia Активный 131 / 124 40% 2 15.03.2027 -
Jérémy Le Douaron Palermo Активный 140 / 126 40% 1 15.03.2027 -
Simone Mazzocchi Cosenza Активный 122 / 129 40% 1 10.03.2027 -
Everton Bala Levski Активный 111 / 112 40% 1 09.03.2027 -
Facundo Kruspzky Al Wahda Активный 121 / 132 40% 4 08.03.2027 -
Albert Amoah Hajer Активный 97 / 110 40% 1 27.02.2027 -
Ismail Saadi JS Saoura Активный 101 / 110 40% 1 25.02.2027 -
Friday Ubong Ashanti Gold Активный 103 / 84 40% 1 22.02.2027 -
Kamran Aliev SKA Khabarovsk Активный 106 / 104 40% 1 22.02.2027 -
Isaac Essien WAFA Активный 90 / 94 40% 1 21.02.2027 -
Giuseppe Di Serio Spezia Активный 113 / 127 40% 1 20.02.2027 -
Yegor Golenkov Rostov Активный 127 / 96 40% 1 09.02.2027 -
Jacques Siwe Rubin Активный 130 / 93 40% 2 05.02.2027 -
Pedro Marques Apollon Активный 132 / 89 40% 1 25.01.2027 -
Vyacheslav Grulev Nizhniy Novgorod Активный 116 / 98 40% 1 18.01.2027 -
Chris Bedia Al Nasr Активный 113 / 114 40% 3 31.12.2026 -
Ammar Ramadan DAC Dunajska Streda Активный 120 / 132 40% 1 30.12.2026 Нужно больше данных
Slobodan Tedić Akron Активный 102 / 98 40% 1 30.12.2026 -
Denzel Jubitana Neftchi Активный 126 / 113 40% 3 29.12.2026 -
Prince Ibara Al-Njoom Активный 93 / 111 40% 4 28.12.2026 -
Aidomo Emakhu Oxford United Активный 134 / 100 40% 2 28.12.2026 -
Chinedu Geoffrey Krylya Sovetov Активный 112 / 118 40% 1 26.12.2026 -
Elton Acolatse Al-Hazem Активный 111 / 122 40% 3 20.12.2026 -
Karim El Berkaoui Al Dhafra Активный 125 / 112 40% 6 19.12.2026 -
Krisztofer Horváth Ujpest Активный 123 / 100 40% 1 19.12.2026 -
Bruno Al Jazira Активный 120 / 104 40% 1 13.12.2026 -
Yago Santiago Racing Santander Активный 126 / 116 40% 1 11.12.2026 Нужно больше данных
Renato Júnior Al Wasl Активный 128 / 121 40% 1 04.12.2026 -
Bence Pethő Vasas Активный 81 / 91 40% 1 30.11.2026 -
Kwadwo Duah Ludogorets Активный 131 / 105 40% 3 26.11.2026 -
Giorgos Giakoumakis Al Ain Активный 137 / 127 40% 3 24.11.2026 -
Nathan Ordaz Metalist Активный 100 / 123 40% 2 18.11.2026 -
Luka Kurtovic NK Domzale Активный 113 / 139 40% 3 18.11.2026 -
Juanjo Narváez Al-Ra'ed Активный 106 / 101 40% 4 16.11.2026 -
Musa Barrow Al-Khaleej Активный 148 / 147 40% 3 16.11.2026 -
Kein Sato FC Tokyo Активный 124 / 126 40% 1 14.11.2026 -
José Martínes CSKA 1948 Активный 105 / 87 40% 1 06.11.2026 -
Marcelo Torres Gimnasia La Plata Активный 101 / 123 40% 3 05.11.2026 -
Ramón Mierez Al Nasr Активный 129 / 109 40% 1 03.11.2026 -
Eddy Ozobic Inter Активный 102 / 130 40% 1 28.10.2026 -
Hansel Zapata Botev Plovdiv Активный 105 / 107 40% 1 27.10.2026 -
Yaroslav Gladyshev Dinamo Moscow Активный 116 / 125 40% 2 25.10.2026 -
Mustapha Sangaré Levski Активный 131 / 124 40% 1 24.10.2026 -
Fady Farid Smouha Активный 93 / 86 40% 2 21.10.2026 -
Samuel Kalu Botev Plovdiv Активный 136 / 119 40% 1 21.10.2026 -
Alassana Jatta Notts County Активный 88 / 109 40% 2 19.10.2026 -
Chuchu Ramírez Nacional Активный 149 / 134 40% 1 19.10.2026 -
Nasser Mansi Najran Активный 100 / 102 40% 2 17.10.2026 -
Moussa Koné Al-Ra'ed Активный 114 / 112 40% 3 15.10.2026 -
Robert Murić Floriana Активный 88 / 101 40% 1 13.10.2026 -
Peter Olayinka Al-Wehda Активный 116 / 127 40% 1 13.10.2026 -
Matty Stevens AFC Wimbledon Активный 98 / 87 40% 1 10.10.2026 -
Örvar Eggertsson Stjarnan Активный 95 / 116 40% 1 27.09.2026 -
Nabil Alioui Al-Nassr Активный 101 / 101 40% 1 19.09.2026 -
Hakeeb Adelakun Doncaster Rovers Активный 85 / 83 40% 1 12.09.2026 -
Adalberto Peñaranda Deportivo Tachira Активный 118 / 103 40% 1 12.09.2026 -
Kristian Eriksen Molde Активный 130 / 128 40% 1 11.09.2026 -
Tenton Yenne Baltika Активный 110 / 130 40% 1 08.09.2026 -
Matěj Koubek MFK Ruzomberok Активный 119 / 104 40% 1 08.09.2026 -
Irakli Kvilitaia Tskhinvali Активный 107 / 116 40% 1 07.09.2026 -